| time (UTC) | temp F | wind direction | speed MPH | gust MPH | rain 1hr in | rain 24hr in | rain mn in | humidity % | barometer mb |
| 20260504151017 | 66 | 262 | 7.0 | 14.0 | 0.00 | 0.00 | 0.00 | 37 | 1013.8 |
| 20260504150518 | 65 | 317 | 4.0 | 14.0 | 0.00 | 0.00 | 0.00 | 38 | 1013.9 |
| 20260504141017 | 62 | 209 | 3.0 | 10.0 | 0.00 | 0.00 | 0.00 | 49 | 1014.0 |
| 20260504140520 | 62 | 234 | 3.0 | 10.0 | 0.00 | 0.00 | 0.00 | 49 | 1014.0 |
| 20260504130517 | 58 | 207 | 5.0 | 13.0 | 0.00 | 0.00 | 0.00 | 60 | 1014.2 |
| 20260504110517 | 49 | 215 | 4.0 | 11.0 | 0.00 | 0.00 | 0.00 | 71 | 1014.9 |
| 20260504100520 | 48 | 238 | 4.0 | 11.0 | 0.00 | 0.00 | 0.00 | 64 | 1014.9 |
| 20260504081541 | 50 | 292 | 1.0 | 8.0 | 0.00 | 0.00 | 0.00 | 51 | 1014.9 |
| 20260504081018 | 50 | 304 | 2.0 | 8.0 | 0.00 | 0.00 | 0.00 | 51 | 1014.9 |
| 20260504080517 | 50 | 304 | 2.0 | 6.0 | 0.00 | 0.00 | 0.00 | 50 | 1015.0 |
| 20260504050520 | 53 | 0 | 0.0 | 0.0 | 0.00 | 0.00 | 0.00 | 43 | 1014.9 |
| 20260504045517 | 53 | 0 | 0.0 | 3.0 | 0.00 | 0.00 | 0.00 | 42 | 1014.9 |
| 20260504045016 | 53 | 0 | 0.0 | 4.0 | 0.00 | 0.00 | 0.00 | 42 | 1014.8 |
| 20260504044534 | 53 | 306 | 1.0 | 4.0 | 0.00 | 0.00 | 0.00 | 42 | 1014.7 |
| 20260504044018 | 53 | 289 | 1.0 | 7.0 | 0.00 | 0.00 | 0.00 | 42 | 1014.7 |
| 20260504043518 | 53 | 286 | 2.0 | 7.0 | 0.00 | 0.00 | 0.00 | 42 | 1014.7 |
| 20260504043044 | 53 | 257 | 2.0 | 5.0 | 0.00 | 0.00 | 0.00 | 42 | 1014.7 |
| 20260504042517 | 53 | 0 | 1.0 | 6.0 | 0.00 | 0.00 | 0.00 | 41 | 1014.7 |
| 20260504042018 | 53 | 287 | 2.0 | 7.0 | 0.00 | 0.00 | 0.00 | 41 | 1014.6 |
| 20260504041541 | 53 | 294 | 2.0 | 7.0 | 0.00 | 0.00 | 0.00 | 41 | 1014.5 |
| 20260504041017 | 53 | 0 | 2.0 | 7.0 | 0.00 | 0.00 | 0.00 | 41 | 1014.4 |
| 20260504040517 | 53 | 0 | 1.0 | 7.0 | 0.00 | 0.00 | 0.00 | 41 | 1014.3 |
| 20260504040042 | 53 | 288 | 2.0 | 6.0 | 0.00 | 0.00 | 0.00 | 41 | 1014.3 |
| 20260504035518 | 53 | 220 | 1.0 | 9.0 | 0.00 | 0.00 | 0.00 | 41 | 1014.4 |
| 20260504035016 | 54 | 314 | 2.0 | 9.0 | 0.00 | 0.00 | 0.00 | 41 | 1014.4 |
| 20260504034536 | 54 | 225 | 2.0 | 11.0 | 0.00 | 0.00 | 0.00 | 40 | 1014.3 |
| 20260504034020 | 54 | 274 | 1.0 | 11.0 | 0.00 | 0.00 | 0.00 | 40 | 1014.3 |
| 20260504033517 | 54 | 247 | 2.0 | 8.0 | 0.00 | 0.00 | 0.00 | 40 | 1014.3 |
| 20260504033037 | 54 | 279 | 2.0 | 8.0 | 0.00 | 0.00 | 0.00 | 40 | 1014.3 |
| 20260504032518 | 54 | 279 | 3.0 | 8.0 | 0.00 | 0.00 | 0.00 | 40 | 1014.2 |
| 20260504032024 | 54 | 302 | 2.0 | 7.0 | 0.00 | 0.00 | 0.00 | 40 | 1014.2 |
| 20260504031545 | 54 | 319 | 2.0 | 7.0 | 0.00 | 0.00 | 0.00 | 40 | 1014.3 |
| 20260504031020 | 54 | 252 | 2.0 | 10.0 | 0.00 | 0.00 | 0.00 | 40 | 1014.2 |
| 20260504030520 | 54 | 296 | 1.0 | 10.0 | 0.00 | 0.00 | 0.00 | 40 | 1014.1 |
| 20260504030044 | 54 | 272 | 2.0 | 8.0 | 0.00 | 0.00 | 0.00 | 40 | 1014.2 |
| 20260504025517 | 54 | 319 | 1.0 | 4.0 | 0.00 | 0.00 | 0.00 | 40 | 1014.1 |
| 20260504025020 | 54 | 177 | 1.0 | 7.0 | 0.00 | 0.00 | 0.00 | 40 | 1014.2 |
| 20260504024539 | 54 | 292 | 1.0 | 7.0 | 0.00 | 0.00 | 0.00 | 40 | 1014.2 |
| 20260504024022 | 54 | 236 | 1.0 | 7.0 | 0.00 | 0.00 | 0.00 | 40 | 1014.2 |
| 20260504023520 | 54 | 337 | 2.0 | 6.0 | 0.00 | 0.00 | 0.00 | 40 | 1014.2 |
| 20260504023037 | 54 | 289 | 2.0 | 6.0 | 0.00 | 0.00 | 0.00 | 40 | 1014.3 |
| 20260504022521 | 54 | 0 | 2.0 | 6.0 | 0.00 | 0.00 | 0.00 | 40 | 1014.2 |
| 20260504022020 | 54 | 281 | 1.0 | 6.0 | 0.00 | 0.00 | 0.00 | 40 | 1014.2 |
| 20260504021535 | 54 | 248 | 1.0 | 6.0 | 0.00 | 0.00 | 0.00 | 40 | 1014.2 |
| 20260504021020 | 54 | 331 | 2.0 | 6.0 | 0.00 | 0.00 | 0.00 | 39 | 1014.3 |
| 20260504020519 | 54 | 0 | 1.0 | 4.0 | 0.00 | 0.00 | 0.00 | 39 | 1014.2 |
| 20260504020034 | 55 | 250 | 1.0 | 4.0 | 0.00 | 0.00 | 0.00 | 39 | 1014.1 |
| 20260504015521 | 55 | 265 | 0.0 | 3.0 | 0.00 | 0.00 | 0.00 | 39 | 1014.1 |
| 20260504015024 | 55 | 219 | 1.0 | 3.0 | 0.00 | 0.00 | 0.00 | 38 | 1014.0 |
| 20260504014546 | 55 | 0 | 1.0 | 3.0 | 0.00 | 0.00 | 0.00 | 38 | 1014.0 |
| 20260504014021 | 55 | 296 | 1.0 | 4.0 | 0.00 | 0.00 | 0.00 | 38 | 1014.1 |
| 20260504013518 | 55 | 267 | 1.0 | 6.0 | 0.00 | 0.00 | 0.00 | 38 | 1014.0 |
| 20260504013051 | 55 | 267 | 1.0 | 6.0 | 0.00 | 0.00 | 0.00 | 37 | 1013.9 |
| 20260504012522 | 55 | 277 | 0.0 | 4.0 | 0.00 | 0.00 | 0.00 | 37 | 1013.9 |
| 20260504012017 | 55 | 0 | 0.0 | 4.0 | 0.00 | 0.00 | 0.00 | 37 | 1013.9 |
| 20260504011539 | 56 | 282 | 2.0 | 4.0 | 0.00 | 0.00 | 0.00 | 37 | 1013.8 |
| 20260504011024 | 56 | 0 | 1.0 | 4.0 | 0.00 | 0.00 | 0.00 | 37 | 1013.7 |
| 20260504010520 | 56 | 246 | 1.0 | 5.0 | 0.00 | 0.00 | 0.00 | 37 | 1013.7 |
| 20260504010039 | 56 | 282 | 1.0 | 6.0 | 0.00 | 0.00 | 0.00 | 37 | 1013.6 |
| 20260504005521 | 56 | 295 | 1.0 | 6.0 | 0.00 | 0.00 | 0.00 | 36 | 1013.6 |
| 20260504005023 | 56 | 301 | 1.0 | 3.0 | 0.00 | 0.00 | 0.00 | 36 | 1013.6 |
| 20260504004535 | 56 | 0 | 0.0 | 3.0 | 0.00 | 0.00 | 0.00 | 36 | 1013.5 |
| 20260504004020 | 57 | 0 | 0.0 | 3.0 | 0.00 | 0.00 | 0.00 | 36 | 1013.4 |
| 20260504003520 | 57 | 0 | 1.0 | 3.0 | 0.00 | 0.00 | 0.00 | 35 | 1013.3 |
| 20260504003042 | 57 | 294 | 0.0 | 5.0 | 0.00 | 0.00 | 0.00 | 35 | 1013.2 |
| 20260504002520 | 57 | 0 | 1.0 | 5.0 | 0.00 | 0.00 | 0.00 | 34 | 1013.2 |
| 20260504002020 | 58 | 0 | 1.0 | 4.0 | 0.00 | 0.00 | 0.00 | 34 | 1013.2 |
| 20260504001609 | 58 | 0 | 0.0 | 4.0 | 0.00 | 0.00 | 0.00 | 33 | 1013.1 |
| 20260504001017 | 58 | 284 | 1.0 | 10.0 | 0.00 | 0.00 | 0.00 | 33 | 1013.0 |
| 20260504000517 | 58 | 276 | 2.0 | 10.0 | 0.00 | 0.00 | 0.00 | 33 | 1013.0 |
| 20260504000037 | 59 | 292 | 3.0 | 10.0 | 0.00 | 0.00 | 0.00 | 32 | 1013.0 |
| 20260503235517 | 59 | 295 | 4.0 | 12.0 | 0.00 | 0.00 | 0.00 | 32 | 1012.9 |
| 20260503235018 | 59 | 302 | 7.0 | 12.0 | 0.00 | 0.00 | 0.00 | 31 | 1012.8 |
| 20260503234535 | 59 | 325 | 5.0 | 11.0 | 0.00 | 0.00 | 0.00 | 32 | 1012.7 |
| 20260503234017 | 59 | 302 | 5.0 | 10.0 | 0.00 | 0.00 | 0.00 | 32 | 1012.7 |
| 20260503233517 | 59 | 284 | 4.0 | 12.0 | 0.00 | 0.00 | 0.00 | 31 | 1012.8 |
| 20260503233039 | 60 | 304 | 4.0 | 12.0 | 0.00 | 0.00 | 0.00 | 31 | 1012.6 |
| 20260503232516 | 60 | 282 | 5.0 | 12.0 | 0.00 | 0.00 | 0.00 | 31 | 1012.7 |
| 20260503232016 | 60 | 322 | 6.0 | 12.0 | 0.00 | 0.00 | 0.00 | 30 | 1012.6 |
| 20260503231534 | 60 | 300 | 4.0 | 12.0 | 0.00 | 0.00 | 0.00 | 31 | 1012.6 |
| 20260503231018 | 60 | 296 | 6.0 | 15.0 | 0.00 | 0.00 | 0.00 | 30 | 1012.6 |
| 20260503230519 | 60 | 320 | 7.0 | 15.0 | 0.00 | 0.00 | 0.00 | 30 | 1012.6 |
| 20260503230035 | 60 | 332 | 8.0 | 15.0 | 0.00 | 0.00 | 0.00 | 30 | 1012.5 |
| 20260503225520 | 60 | 327 | 7.0 | 14.0 | 0.00 | 0.00 | 0.00 | 30 | 1012.5 |
| 20260503225020 | 60 | 266 | 7.0 | 16.0 | 0.00 | 0.00 | 0.00 | 29 | 1012.5 |
| 20260503224541 | 60 | 318 | 9.0 | 16.0 | 0.00 | 0.00 | 0.00 | 29 | 1012.4 |
| 20260503224018 | 60 | 312 | 6.0 | 13.0 | 0.00 | 0.00 | 0.00 | 28 | 1012.4 |
| 20260503223517 | 60 | 285 | 8.0 | 14.0 | 0.00 | 0.00 | 0.00 | 29 | 1012.5 |
| 20260503223040 | 61 | 292 | 7.0 | 14.0 | 0.00 | 0.00 | 0.00 | 28 | 1012.5 |
| 20260503222518 | 61 | 324 | 10.0 | 17.0 | 0.00 | 0.00 | 0.00 | 28 | 1012.4 |
| 20260503222016 | 61 | 262 | 8.0 | 17.0 | 0.00 | 0.00 | 0.00 | 28 | 1012.5 |
| 20260503221537 | 61 | 332 | 8.0 | 14.0 | 0.00 | 0.00 | 0.00 | 28 | 1012.5 |
| 20260503221017 | 61 | 340 | 8.0 | 18.0 | 0.00 | 0.00 | 0.00 | 28 | 1012.4 |
| 20260503220519 | 61 | 328 | 11.0 | 20.0 | 0.00 | 0.00 | 0.00 | 28 | 1012.4 |
| 20260503220035 | 61 | 339 | 12.0 | 20.0 | 0.00 | 0.00 | 0.00 | 27 | 1012.4 |
| 20260503215518 | 61 | 352 | 8.0 | 14.0 | 0.00 | 0.00 | 0.00 | 28 | 1012.4 |
| 20260503215017 | 61 | 317 | 7.0 | 15.0 | 0.00 | 0.00 | 0.00 | 28 | 1012.4 |
| 20260503214534 | 61 | 352 | 5.0 | 15.0 | 0.00 | 0.00 | 0.00 | 29 | 1012.4 |
| 20260503214017 | 61 | 331 | 10.0 | 15.0 | 0.00 | 0.00 | 0.00 | 28 | 1012.3 |
| 20260503213517 | 60 | 318 | 8.0 | 17.0 | 0.00 | 0.00 | 0.00 | 28 | 1012.4 |
| 20260503213043 | 60 | 331 | 9.0 | 17.0 | 0.00 | 0.00 | 0.00 | 28 | 1012.3 |
| 20260503212516 | 60 | 308 | 7.0 | 16.0 | 0.00 | 0.00 | 0.00 | 28 | 1012.2 |
| 20260503212017 | 60 | 298 | 10.0 | 21.0 | 0.00 | 0.00 | 0.00 | 28 | 1012.3 |
| 20260503211539 | 60 | 327 | 12.0 | 21.0 | 0.00 | 0.00 | 0.00 | 27 | 1012.4 |
| 20260503211021 | 60 | 327 | 11.0 | 21.0 | 0.00 | 0.00 | 0.00 | 27 | 1012.3 |
| 20260503210521 | 60 | 321 | 7.0 | 21.0 | 0.00 | 0.00 | 0.00 | 28 | 1012.4 |
| 20260503210036 | 60 | 312 | 8.0 | 21.0 | 0.00 | 0.00 | 0.00 | 29 | 1012.5 |
| 20260503205521 | 60 | 319 | 8.0 | 21.0 | 0.00 | 0.00 | 0.00 | 28 | 1012.4 |
| 20260503205021 | 60 | 336 | 11.0 | 17.0 | 0.00 | 0.00 | 0.00 | 29 | 1012.4 |
| 20260503204542 | 60 | 335 | 10.0 | 16.0 | 0.00 | 0.00 | 0.00 | 29 | 1012.5 |
| 20260503204020 | 59 | 295 | 5.0 | 18.0 | 0.00 | 0.00 | 0.00 | 30 | 1012.7 |
| 20260503203520 | 59 | 349 | 9.0 | 21.0 | 0.00 | 0.00 | 0.00 | 30 | 1012.7 |
| 20260503203049 | 59 | 316 | 9.0 | 21.0 | 0.00 | 0.00 | 0.00 | 30 | 1012.8 |
| 20260503202520 | 59 | 332 | 14.0 | 21.0 | 0.00 | 0.00 | 0.00 | 29 | 1012.8 |
| 20260503202021 | 59 | 317 | 12.0 | 19.0 | 0.00 | 0.00 | 0.00 | 30 | 1012.7 |
| 20260503201545 | 59 | 348 | 7.0 | 19.0 | 0.00 | 0.00 | 0.00 | 31 | 1012.6 |
| 20260503201020 | 59 | 30 | 10.0 | 19.0 | 0.00 | 0.00 | 0.00 | 29 | 1012.8 |
| 20260503200521 | 59 | 337 | 11.0 | 21.0 | 0.00 | 0.00 | 0.00 | 29 | 1012.8 |
| 20260503200040 | 59 | 330 | 11.0 | 21.0 | 0.00 | 0.00 | 0.00 | 30 | 1012.7 |
| 20260503195517 | 59 | 327 | 10.0 | 20.0 | 0.00 | 0.00 | 0.00 | 31 | 1012.8 |
| 20260503195021 | 58 | 310 | 12.0 | 20.0 | 0.00 | 0.00 | 0.00 | 30 | 1013.0 |
| 20260503194535 | 58 | 65 | 14.0 | 20.0 | 0.00 | 0.00 | 0.00 | 29 | 1013.0 |
| 20260503194021 | 58 | 305 | 13.0 | 21.0 | 0.00 | 0.00 | 0.00 | 32 | 1013.1 |
| 20260503193519 | 58 | 325 | 12.0 | 29.0 | 0.00 | 0.00 | 0.00 | 31 | 1013.1 |
| 20260503193046 | 58 | 333 | 15.0 | 29.0 | 0.00 | 0.00 | 0.00 | 31 | 1013.2 |
| 20260503192520 | 58 | 338 | 11.0 | 18.0 | 0.00 | 0.00 | 0.00 | 31 | 1013.1 |
| 20260503192020 | 58 | 328 | 10.0 | 18.0 | 0.00 | 0.00 | 0.00 | 32 | 1013.2 |
| 20260503191544 | 59 | 334 | 9.0 | 21.0 | 0.00 | 0.00 | 0.00 | 31 | 1013.2 |
| 20260503191022 | 59 | 331 | 12.0 | 28.0 | 0.00 | 0.00 | 0.00 | 31 | 1013.3 |
| 20260503190522 | 58 | 309 | 14.0 | 28.0 | 0.00 | 0.00 | 0.00 | 31 | 1013.3 |
| 20260503190045 | 58 | 311 | 8.0 | 19.0 | 0.00 | 0.00 | 0.00 | 31 | 1013.3 |
| 20260503185520 | 58 | 336 | 10.0 | 20.0 | 0.00 | 0.00 | 0.00 | 32 | 1013.3 |
| 20260503185021 | 58 | 312 | 12.0 | 20.0 | 0.00 | 0.00 | 0.00 | 32 | 1013.5 |
| 20260503184542 | 57 | 348 | 10.0 | 20.0 | 0.00 | 0.00 | 0.00 | 34 | 1013.5 |
| 20260503184021 | 58 | 337 | 9.0 | 18.0 | 0.00 | 0.00 | 0.00 | 32 | 1013.5 |
| 20260503183520 | 58 | 312 | 10.0 | 18.0 | 0.00 | 0.00 | 0.00 | 32 | 1013.6 |
| 20260503183035 | 58 | 360 | 9.0 | 18.0 | 0.00 | 0.00 | 0.00 | 33 | 1013.7 |
| 20260503182519 | 58 | 304 | 12.0 | 20.0 | 0.00 | 0.00 | 0.00 | 32 | 1013.8 |
| 20260503182021 | 57 | 313 | 9.0 | 20.0 | 0.00 | 0.00 | 0.00 | 33 | 1013.8 |
| 20260503181542 | 57 | 327 | 10.0 | 20.0 | 0.00 | 0.00 | 0.00 | 31 | 1013.7 |
| 20260503181017 | 58 | 27 | 8.0 | 18.0 | 0.00 | 0.00 | 0.00 | 34 | 1013.7 |
| 20260503180519 | 56 | 37 | 9.0 | 18.0 | 0.00 | 0.00 | 0.00 | 31 | 1013.6 |
| 20260503180045 | 57 | 351 | 11.0 | 22.0 | 0.00 | 0.00 | 0.00 | 32 | 1013.6 |
| 20260503175517 | 56 | 311 | 11.0 | 23.0 | 0.00 | 0.00 | 0.00 | 32 | 1013.6 |
| 20260503175020 | 56 | 291 | 13.0 | 23.0 | 0.00 | 0.00 | 0.00 | 32 | 1013.6 |
| 20260503174545 | 56 | 289 | 12.0 | 17.0 | 0.00 | 0.00 | 0.00 | 34 | 1013.8 |
| 20260503174018 | 55 | 301 | 7.0 | 22.0 | 0.00 | 0.00 | 0.00 | 33 | 1013.8 |
| 20260503173521 | 56 | 325 | 9.0 | 22.0 | 0.00 | 0.00 | 0.00 | 34 | 1013.8 |
| 20260503173045 | 56 | 298 | 10.0 | 18.0 | 0.00 | 0.00 | 0.00 | 34 | 1014.0 |
| 20260503172520 | 55 | 346 | 9.0 | 14.0 | 0.00 | 0.00 | 0.00 | 34 | 1013.9 |
| 20260503172018 | 55 | 344 | 6.0 | 23.0 | 0.00 | 0.00 | 0.00 | 35 | 1013.9 |
| 20260503171534 | 54 | 333 | 9.0 | 23.0 | 0.00 | 0.00 | 0.00 | 34 | 1014.1 |
| 20260503171020 | 54 | 330 | 9.0 | 23.0 | 0.00 | 0.00 | 0.00 | 36 | 1014.1 |
| 20260503170518 | 55 | 344 | 6.0 | 18.0 | 0.00 | 0.00 | 0.00 | 34 | 1014.1 |